User: anonymous   Login
Location: Caltech
(34.1382°N, 118.1253°W)
Time: 10:19:13
(UTC-07:00)
Language:

Cosmos 44 Rocket - Orbit

View from above orbital plane
View from above orbital plane
View from above satellite
View from above satellite

Ground track
Ground track

The orbit data is extracted from the following two-line orbital elements,

1 00877U 64053B   15184.16622720 -.00000031  00000-0  18674-4 0  9990
2 00877 065.0771 221.3654 0059635 017.2786 343.0324 14.59130347697189
Epoch (UTC): 03 July 2015 03:59:22
Eccentricity: 0.0059635
inclination: 65.0771°
perigee height: 654 km
apogee height: 738 km
right ascension of ascending node: 221.3654°
argument of perigee: 17.2786°
revolutions per day: 14.59130347
mean anomaly at epoch: 343.0324°
orbit number at epoch: 69718

The dashed part of the orbit path shows where the satellite is in the earth's shadow,  

DLR